Regional Weather Roundup
Issued by NWS

Home | Current Version | Previous Version | Graphics & Text | Print | Product List | Glossary On
Versions: 1 2 3 4 5 6 7 8 9 10 11 12 13 14 15 16 17 18 19 20 21 22 23 24 25 26 27
000
ASUS45 KBOU 280207
RWRCO

WEATHER ROUNDUP FOR COLORADO
NATIONAL WEATHER SERVICE DENVER/BOULDER CO
800 PM MDT SAT MAY 27 2017

NOTE: "FAIR" INDICATES FEW OR NO CLOUDS BELOW 12000 FEET WITH NO
SIGNIFICANT WEATHER AND/OR OBSTRUCTIONS TO VISIBILITY.

COZ001>005-013-030-031-280300-
...NORTHWEST COLORADO...

CITY           SKY/WX    TMP DP  RH WIND       PRES   REMARKS
CRAIG          FAIR      54  37  52 E5        30.26R
HAYDEN         MOCLDY    50  36  57 SE6       30.28R
MEEKER         MOCLDY    57  28  33 N7        30.25R
RABBIT EARS PA NOT AVBL
STEAMBOAT SPGS NOT AVBL
WALDEN         NOT AVBL
$$

COZ006>008-011-280300-
...WEST CENTRAL VALLEYS...

CITY           SKY/WX    TMP DP  RH WIND       PRES   REMARKS
GRAND JUNCTION FAIR      67  25  20 N17       30.14R
MONTROSE       FAIR      64  25  22 N14G21    30.19R
EAGLE          FAIR      51  36  56 VRB7      30.31R
RIFLE          FAIR      62  31  31 N7        30.22R
DELTA          FAIR      68  26  20 N12       30.17R
NUCLA          FAIR      64  23  20 N10       30.20R
$$

COZ017>023-064>068-280300-
...SOUTHWEST COLORADO...

CITY           SKY/WX    TMP DP  RH WIND       PRES   REMARKS
DURANGO        FAIR      64  15  15 W10       30.14R
CORTEZ         FAIR      67  13  12 N15G24    30.13R
PAGOSA SPRINGS FAIR      60  15  17 SW12      30.20R
TELLURIDE      MOCLDY    47  27  45 SE6       30.33R
WOLF CREEK PAS NOT AVBL
$$

COZ009-010-012-014-032>034-037-058>063-280300-
...CENTRAL COLORADO...

CITY           SKY/WX    TMP DP  RH WIND       PRES   REMARKS
ASPEN          LGT RAIN  45  31  58 VRB7      30.30R
BUENA VISTA    FAIR      46  30  55 NW22G33   30.27R
COPPER MTN     NOT AVBL
BERTHOUD PASS  NOT AVBL
COTTONWOOD PAS NOT AVBL
GUNNISON       FAIR      52  26  36 NW12      30.25R
KREMMLING      NOT AVBL
LEADVILLE      FAIR      32  26  78 NE6       30.36S WCI  26
SALIDA         MOCLDY    57  25  28 N5        30.32R
SUNLIGHT       NOT AVBL
WILKERSON PASS NOT AVBL
$$

COZ069>075-280300-
...SAN LUIS VALLEY/SANGRE DE CRISTO MOUNTAINS...

CITY           SKY/WX    TMP DP  RH WIND       PRES   REMARKS
ALAMOSA        MOCLDY    60  23  24 NW7       30.18R
DEL NORTE      NOT AVBL
LA VETA PASS   NOT AVBL
SAGUACHE       NOT AVBL
$$

COZ035-036-038>040-280300-
...NORTHERN COLORADO FRONT RANGE...

CITY           SKY/WX    TMP DP  RH WIND       PRES   REMARKS
DENVER INTL AP MOCLDY    52  40  63 W9        30.22R
DMNS CITY PARK   N/A     51  40  66 N7        30.23S
AURORA         MOCLDY    51  43  72 N6        30.23R
FRONT RANGE AP PTCLDY    54  45  71 W7        30.22S
ERIE MUNI ARPT NOT AVBL
BOULDER MUN AP NOT AVBL
CENTENNIAL     FAIR      51  39  63 NW7       30.23R
BROOMFIELD     PTCLDY    50  45  81 CALM      30.24R
FORT COLLINS   NOT AVBL
LONGMONT       NOT AVBL
$$

COZ041-046-047-076>085-087-088-280300-
...PIKES PEAK/PALMER DIVIDE AND SOUTHERN FOOTHILLS...

CITY           SKY/WX    TMP DP  RH WIND       PRES   REMARKS
COLO. SPRINGS  MOCLDY    52  40  63 N18       30.25R
A. F. ACADEMY  CLOUDY    49  38  66 NW8       30.26R
SCHRIEVER AFB  FAIR      49  39  68 NW12      30.24R
CHEYENNE MTN   MOCLDY    47  37  68 NW14G21   30.21R
ELLICOTT       FAIR     N/A N/A N/A N15G23    30.21R
FALCON         MOCLDY    47  37  68 N12       30.26R
FORT CARSON    FAIR      49  42  78 NW12      30.23R
LIMON          FAIR      51  42  71 N9        30.18S
MONUMENT HILL  NOT AVBL
CANON CITY     NOT AVBL
WALSENBURG     CLOUDY    48  45  87 SW3       30.27R
TRINIDAD       CLOUDY    49  43  80 NE17      30.21F
$$

COZ042>045-048>051-090-091-280300-
...NORTHEAST COLORADO...

CITY           SKY/WX    TMP DP  RH WIND       PRES   REMARKS
GREELEY ARPT   FAIR      53  46  77 CALM      30.20R
AKRON          FAIR      53  40  61 N7        30.16R
BURLINGTON     FAIR      53  50  89 W6        30.14R
WRAY           FAIR      57  43  58 N8        30.11R
YUMA           NOT AVBL
STERLING       NOT AVBL
HOLYOKE        NOT AVBL
FORT MORGAN    FAIR      55  41  60 W3        30.17R
$$

COZ086-089-092>099-280300-
...SOUTHEAST COLORADO...

CITY           SKY/WX    TMP DP  RH WIND       PRES   REMARKS
PUEBLO         LGT RAIN  54  47  77 CALM      30.20R
LA JUNTA       CLOUDY    52  48  86 CALM      30.19R
LAMAR          CLOUDY    53  49  86 N3        30.14R
SPRINGFIELD      N/A     48  47  96 N20G26    30.17R
$$




USA.gov is the U.S. government's official web portal to all federal, state and local government web resources and services.